Regional Weather Roundup
Issued by NWS Northern Indiana

Home | Current Version | Previous Version | Graphics & Text | Print | Product List | Glossary On
Versions: 1 2 3 4 5 6 7 8 9 10 11 12 13 14 15 16 17 18 19 20 21 22 23 24 25 26 27 28 29 30 31 32 33 34 35 36 37 38 39 40 41 42 43 44 45 46 47 48 49 50
000
ASUS43 KIWX 071710
RWRIWX

KIWX WEATHER ROUNDUP
NATIONAL WEATHER SERVICE NORTHERN INDIANA
100 PM EDT TUE JUL 07 2015

NOTE: "FAIR" INDICATES FEW OR NO CLOUDS BELOW 12,000 FEET WITH NO
SIGNIFICANT WEATHER AND/OR OBSTRUCTIONS TO VISIBILITY.

* THESE STATIONS ARE NOT UNDER NWS QUALITY CONTROL. THEY ALSO MAY NOT
  REPORT WEATHER SUCH AS PRECIPITATION OR FOG.

INZ001>027-071800-
NORTHERN INDIANA

CITY           SKY/WX    TMP DP  RH WIND       PRES   REMARKS
GARY*          CLOUDY    63  54  72 N16G32    30.01R
VALPARAISO     PTSUNNY   64  56  75 N9G23     29.98R
MICHIGAN CITY* CLOUDY    63  59  88 N10G21    29.99R
LAPORTE*       CLOUDY    66  58  75 N15G24    29.98R
KNOX*          CLOUDY    61  61 100 N13G18    29.95S
SOUTH BEND     CLOUDY    66  60  81 N18       29.95S
ELKHART*       CLOUDY    64  63  94 N7        29.94S
GOSHEN         LGT RAIN  65  62  90 NW12      29.92S
MONTICELLO*    LGT RAIN  64  63  98 N13       29.93S
LOGANSPORT*    LGT RAIN  64  61  88 N12       29.94R
ROCHESTER*     LGT RAIN  64  64 100 NW12      29.94R
WARSAW*        LGT RAIN  63  63 100 NW8       29.93S
ANGOLA*        CLOUDY    70  63  78 NW12      29.91R
FORT WAYNE     CLOUDY    75  71  87 W8        29.91S
HUNTINGTON*    LGT RAIN  74  72  93 SW3       29.90F
PERU/GRISSOM   DRIZZLE   67  65  94 N12       29.91R
MARION*        CLOUDY    74  71  92 W6        29.93R

$$
INZ028>050-071800-
CENTRAL INDIANA

CITY           SKY/WX    TMP DP  RH WIND       PRES   REMARKS
LAFAYETTE      CLOUDY    65  62  90 N12       29.93R FOG
KOKOMO*        CLOUDY    75  70  83 NW15G21   29.91R
MUNCIE*        TSTM      74  72  93 NW10      29.93R VSB 3/4
INDIANAPOLIS   TSTM      69  66  90 SE6       29.93S FOG

$$
MIZ043>046-050>051-056>058-064>065-071>073-077>080-071800-
SOUTHWEST LOWER MICHIGAN

CITY           SKY/WX    TMP DP  RH WIND       PRES   REMARKS
BATTLE CREEK   CLOUDY    65  60  84 N8        29.93R
BENTON HARBOR  MOSUNNY   63  56  78 NW12G23   29.97R
COLDWATER*     DRIZZLE   65  64  97 NW9       29.91S
HILLSDALE*     LGT RAIN  73  73 100 W5        29.89F
HOLLAND        SUNNY     67  54  63 W12G20    29.96R
GRAND RAPIDS   PTSUNNY   69  56  62 NW13      29.93S
KALAMAZOO      PTSUNNY   66  59  78 N12G21    29.93R
STURGIS*       DRIZZLE   64  63  94 N16G25    29.92S
THREE RIVERS*  CLOUDY    63  60  91 N6        29.93S

$$
OHZ001>008-015>018-024>025-071800-
NORTHWEST OHIO

CITY           SKY/WX    TMP DP  RH WIND       PRES   REMARKS
DEFIANCE       LGT RAIN  74  71  91 SW8       29.89F
FINDLAY        CLOUDY    77  69  76 NW16      29.90S
TOLEDO EXPRESS LGT RAIN  72  70  93 SW7       29.88F
TOLEDO METCALF LGT RAIN  73  69  87 SW10      29.89F
LIMA           CLOUDY    78  71  79 SW10      29.92S

$$
AND FOR LAKE MICHIGAN COASTAL AND OPEN LAKE BUOY OBSERVATIONS

STATION/POSITION TEMP    WIND        PRES    VSBY  WAVE
                 AIR SEA DIR/SP/G                  HT/PER
                 (F)     (DEG/KT/KT) (MB)    (MI)  (FT/S)
CALUMET HARBOR    60     350/ 13/ 21   N/A
MICHIGAN CITY     59     340/ 23/ 26   N/A
BURNS HARBOR      59     360/ 19/ 23 1015.6R
SAINT JOSEPH      62     340/ 18/ 22 1016.3R
4 MI NW BRIDGMAN  60 64   30/ 19/ 21   N/A           7/ 2
MICHIGAN CITY     59 65   10/ 17/ 21   N/A           7/ 7

$$
&&



USA.gov is the U.S. government's official web portal to all federal, state and local government web resources and services.